Location: *
(49.8044°N, 4.0558°E)
Time: 11:32:10
(UTC+00:00)

Cosmos 841 Rocket - Pass Details

Date: 09 April 2020
Orbit: 747 x 772 km, 74.0° (Epoch: 27 May)

Event Time Altitude Azimuth Distance (km) Brightness Sun altitude
Rises 20:20:02 0° 339° (NNW) 3,260 7.7 -17.1°
Reaches altitude 10° 20:22:32 10° 346° (NNW) 2,328 6.7 -17.4°
Maximum altitude 20:27:36 44° 59° (ENE) 1,057 4.0 -18.0°
Enters shadow 20:29:30 32° 107° (ESE) 1,314 4.2 -18.3°
